Temp
11 9 10 12 13 14 13 14 14 16 17 18 17 18 18 18 19 19 20 21 22 22 24 24 24 25 26 26 26 27 27 28 27 27 26 26 25 24 23 22 20 19 19 18
9 9 11 13 12 13 13 12 12 14 15 16 15 14 15 16 16 18 19 20 20 21 22 23 24 25 25 26 26 27 27 27 27 26 26 26 25 24 22 20 19 18 18 17
7 10 12 12 12 12 12 12 12 13 14 15 14 15 16 16 17 19 19 19 20 21 21 23 24 25 25 26 26 27 26 27 26 25 25 24 23 21 20 20 19 18 17 17
8 10 11 11 11 12 11 12 13 13 13 12 15 14 15 17 16 17 18 19 19 20 22 23 24 24 25 26 26 27 26 26 26 26 24 23 22 22 20 19 18 17 16 16
9 11 11 11 11 12 11 14 13 13 12 12 13 11 14 15 15 16 17 19 19 21 22 23 24 24 25 26 26 26 25 25 25 24 22 22 20 19 18 17 16 16 16 15
9 11 12 11 13 12 13 11 11 11 10 9 11 12 15 16 17 18 17 18 19 20 22 23 23 24 25 25 26 25 24 24 23 22 20 19 19 18 17 16 16 16 16 16
10 10 11 12 11 12 12 9 7 8 8 10 12 12 15 16 16 17 17 18 20 21 22 23 23 23 24 25 24 22 22 22 21 20 19 18 17 17 16 16 16 16 16 15
8 8 10 11 10 10 9 8 7 10 9 10 12 12 14 16 18 18 20 20 19 21 22 23 23 24 24 23 22 21 20 20 19 18 17 17 17 17 16 16 16 15 15 15
6 8 10 11 12 11 10 8 10 10 10 9 10 12 15 17 17 17 17 18 21 22 22 23 23 24 24 22 21 19 19 18 18 17 17 17 16 16 16 16 15 15 15 14
7 8 10 11 12 12 11 11 10 6 10 10 10 11 13 14 16 17 16 15 19 21 21 21 21 22 22 20 19 18 18 18 17 16 16 16 16 15 15 15 15 15 14 14
6 7 8 9 9 10 9 9 10 8 7 10 10 11 11 15 16 17 14 16 18 18 19 17 17 18 19 18 18 17 17 17 16 15 15 15 15 15 15 14 14 14 14 14
6 5 5 7 8 9 9 9 9 8 10 10 8 9 14 14 14 13 13 16 17 17 16 15 14 16 16 17 17 17 16 16 15 15 15 15 15 14 14 14 14 14 13 13
6 4 5 6 8 8 8 8 8 7 7 7 10 11 14 13 14 14 14 16 16 16 16 14 15 15 16 16 16 16 15 15 15 15 15 15 14 14 14 14 14 13 13 13
6 4 5 4 7 7 7 7 8 7 6 9 10 12 13 14 14 13 14 16 16 16 15 15 14 14 15 16 16 15 15 15 14 15 15 14 14 14 14 13 13 13 13 13
5 5 5 5 6 6 6 7 7 7 8 7 10 11 11 11 12 12 14 14 16 15 15 15 15 14 15 15 15 15 15 14 15 14 14 14 14 14 13 13 13 13 13 13
4 5 5 5 7 7 6 7 7 7 8 8 8 8 10 12 13 13 14 15 15 15 14 15 15 15 15 15 15 15 14 15 15 14 14 14 14 14 13 13 13 13 13 13
4 5 5 4 7 7 5 7 7 8 8 9 8 9 11 11 12 13 15 16 16 17 15 15 15 16 16 15 15 15 15 15 15 14 14 14 14 14 13 13 13 13 13 13
4 4 5 4 4 4 9 8 8 8 8 9 10 10 11 12 12 12 13 14 16 17 16 15 16 16 16 15 15 15 15 14 14 14 14 14 14 14 14 13 13 13 13 13
4 5 5 4 4 7 9 7 7 6 8 9 10 10 10 11 9 11 14 15 16 17 17 16 16 17 16 16 16 16 15 14 14 15 15 15 14 14 14 13 13 12 12 13
5 5 5 5 5 6 5 4 4 5 8 8 8 9 9 9 10 12 16 16 17 18 17 16 17 17 17 16 16 15 15 15 15 15 15 15 14 14 13 13 13 12 12 12
5 4 4 5 5 6 4 4 3 7 7 6 7 8 8 8 9 10 12 15 16 17 17 16 17 18 17 16 16 15 15 15 15 15 15 15 14 13 13 13 13 12 12 12
5 5 6 6 6 6 5 3 4 4 3 5 7 7 7 7 8 10 12 15 16 17 17 17 18 18 17 17 16 16 16 16 16 16 15 15 14 13 13 13 13 12 12 12
5 5 5 4 5 5 5 2 3 3 4 6 5 6 6 7 9 10 12 15 17 17 17 17 18 18 18 17 17 17 16 16 16 16 16 15 15 14 13 13 13 12 12 12
5 6 5 6 7 7 5 5 4 4 4 5 5 6 6 6 9 10 12 16 17 17 17 17 18 17 18 17 17 17 17 16 16 16 16 15 15 14 13 13 13 12 12 11
4 5 6 6 7 6 6 5 4 4 4 5 6 6 6 8 10 10 13 15 17 16 16 18 18 18 19 18 18 17 17 17 16 16 16 15 15 14 14 13 13 13 12 11
5 5 6 6 6 5 5 5 5 4 5 5 5 7 8 9 10 11 13 14 16 17 20 19 17 18 19 19 18 18 17 17 16 16 16 16 15 15 14 14 14 13 12 12
Height
1441 1443 1433 1420 1425 1433 1438 1440 1442 1437 1437 1438 1436 1429 1431 1433 1430 1429 1427 1424 1422 1421 1420 1421 1423 1425 1425 1424 1422 1420 1419 1420 1421 1423 1427 1429 1430 1432 1435 1439 1441 1444 1447 1450
1443 1433 1430 1431 1435 1437 1440 1444 1446 1442 1437 1437 1439 1435 1433 1430 1425 1423 1420 1417 1417 1416 1415 1416 1417 1417 1417 1417 1416 1416 1415 1414 1415 1418 1422 1424 1425 1429 1433 1436 1439 1442 1445 1448
1444 1432 1428 1431 1432 1437 1440 1444 1445 1446 1440 1435 1439 1430 1426 1419 1417 1415 1411 1409 1409 1408 1410 1410 1409 1409 1410 1410 1410 1409 1409 1409 1410 1414 1417 1419 1422 1425 1428 1431 1435 1439 1444 1447
1436 1427 1428 1430 1432 1434 1442 1437 1438 1442 1449 1455 1435 1437 1421 1413 1410 1407 1403 1399 1399 1402 1403 1401 1401 1402 1402 1403 1403 1403 1402 1403 1405 1409 1412 1415 1418 1422 1424 1429 1434 1439 1442 1445
1430 1425 1427 1429 1430 1430 1435 1432 1438 1439 1446 1447 1445 1455 1409 1407 1404 1395 1391 1388 1389 1393 1392 1391 1393 1395 1396 1396 1397 1396 1396 1398 1402 1405 1410 1413 1416 1420 1424 1429 1434 1437 1441 1443
1425 1422 1423 1422 1423 1425 1425 1432 1440 1444 1451 1459 1443 1451 1397 1403 1389 1383 1383 1382 1382 1384 1385 1385 1385 1388 1390 1390 1390 1389 1391 1395 1399 1404 1408 1411 1414 1418 1423 1428 1432 1435 1438 1441
1421 1422 1419 1421 1425 1425 1426 1438 1460 1464 1463 1444 1431 1443 1394 1384 1380 1381 1382 1379 1379 1380 1381 1379 1379 1381 1384 1385 1385 1386 1390 1393 1398 1402 1406 1410 1414 1418 1423 1426 1430 1434 1437 1439
1426 1429 1418 1415 1421 1426 1431 1436 1446 1443 1449 1437 1428 1428 1390 1379 1376 1378 1380 1379 1378 1377 1376 1374 1373 1374 1376 1378 1380 1384 1389 1392 1396 1401 1405 1410 1414 1419 1424 1427 1430 1433 1435 1437
1435 1423 1417 1414 1413 1418 1425 1433 1427 1435 1432 1439 1423 1402 1384 1378 1375 1373 1378 1378 1376 1374 1369 1366 1366 1367 1369 1373 1377 1382 1387 1392 1397 1401 1405 1409 1414 1419 1422 1426 1429 1432 1434 1435
1433 1426 1421 1416 1414 1414 1417 1418 1431 1445 1437 1435 1418 1408 1396 1381 1378 1372 1378 1377 1372 1368 1363 1356 1355 1358 1364 1369 1375 1382 1388 1392 1397 1402 1407 1410 1414 1419 1422 1425 1428 1430 1432 1433
1434 1435 1427 1422 1421 1419 1422 1423 1422 1429 1433 1426 1422 1406 1379 1371 1372 1378 1379 1375 1371 1365 1358 1351 1352 1357 1363 1369 1375 1381 1387 1392 1397 1403 1407 1411 1414 1418 1422 1424 1427 1429 1430 1431
1438 1440 1439 1430 1420 1420 1422 1423 1424 1428 1422 1417 1427 1411 1373 1373 1375 1376 1375 1371 1368 1363 1359 1356 1357 1360 1364 1369 1375 1381 1387 1393 1399 1404 1408 1412 1415 1418 1421 1423 1425 1427 1429 1431
1439 1442 1443 1430 1423 1421 1423 1422 1424 1426 1426 1421 1416 1393 1371 1369 1370 1373 1375 1371 1369 1365 1361 1361 1362 1365 1367 1370 1375 1381 1388 1394 1400 1405 1408 1412 1416 1419 1421 1423 1424 1426 1429 1431
1438 1441 1438 1442 1426 1425 1427 1423 1423 1426 1428 1411 1393 1394 1383 1375 1375 1375 1373 1372 1369 1367 1365 1364 1365 1368 1371 1372 1377 1383 1390 1396 1401 1405 1409 1413 1416 1419 1421 1422 1424 1426 1429 1432
1435 1434 1433 1431 1427 1424 1424 1421 1419 1420 1414 1412 1389 1393 1393 1383 1381 1378 1376 1371 1367 1366 1366 1364 1366 1369 1373 1375 1378 1385 1391 1397 1401 1406 1410 1414 1417 1418 1420 1421 1423 1426 1430 1432
1434 1433 1431 1426 1419 1417 1417 1412 1411 1409 1405 1396 1398 1393 1395 1389 1375 1375 1372 1370 1365 1363 1362 1363 1364 1368 1372 1377 1379 1385 1392 1397 1401 1406 1410 1414 1417 1418 1419 1421 1423 1427 1430 1433
1434 1433 1431 1427 1413 1413 1416 1400 1398 1392 1389 1387 1388 1387 1391 1386 1376 1370 1366 1364 1361 1357 1357 1357 1361 1365 1371 1377 1380 1385 1392 1397 1402 1406 1410 1414 1416 1417 1419 1421 1424 1427 1430 1433
1426 1429 1428 1425 1426 1423 1389 1386 1385 1380 1374 1374 1378 1379 1379 1375 1373 1367 1365 1364 1358 1354 1352 1354 1357 1364 1370 1377 1382 1387 1393 1397 1402 1406 1410 1413 1415 1417 1419 1422 1424 1427 1429 1432
1420 1422 1423 1425 1420 1397 1385 1391 1391 1387 1375 1372 1371 1375 1374 1371 1369 1354 1355 1357 1352 1350 1349 1351 1356 1363 1369 1377 1383 1387 1392 1397 1402 1406 1410 1413 1415 1417 1420 1422 1424 1426 1429 1431
1414 1417 1419 1415 1410 1398 1395 1398 1396 1392 1375 1372 1371 1371 1370 1370 1366 1348 1348 1349 1347 1346 1346 1348 1355 1362 1369 1377 1383 1387 1391 1396 1400 1405 1410 1413 1416 1418 1420 1422 1424 1426 1429 1431
1411 1414 1411 1406 1402 1395 1397 1394 1393 1378 1378 1373 1370 1369 1368 1366 1359 1350 1345 1345 1343 1342 1343 1347 1354 1361 1369 1376 1382 1386 1391 1395 1401 1406 1410 1413 1416 1418 1421 1422 1424 1426 1428 1430
1415 1407 1402 1401 1395 1389 1392 1393 1389 1385 1375 1371 1367 1366 1364 1359 1351 1345 1340 1339 1339 1340 1342 1347 1353 1360 1368 1376 1380 1385 1390 1396 1401 1406 1410 1413 1416 1418 1420 1422 1424 1425 1427 1429
1417 1413 1408 1408 1399 1393 1390 1387 1384 1380 1376 1369 1366 1361 1357 1349 1344 1341 1337 1335 1337 1340 1343 1347 1354 1361 1368 1375 1379 1384 1390 1395 1400 1405 1409 1413 1416 1418 1420 1421 1423 1425 1427 1429
1412 1408 1406 1400 1389 1386 1384 1381 1379 1376 1370 1365 1362 1352 1347 1345 1342 1337 1334 1333 1334 1336 1342 1347 1354 1362 1368 1374 1378 1385 1389 1394 1399 1404 1408 1412 1415 1418 1420 1421 1423 1425 1427 1429
1413 1409 1401 1396 1387 1382 1377 1375 1372 1368 1363 1359 1351 1350 1346 1341 1336 1335 1333 1330 1330 1334 1339 1344 1353 1361 1366 1372 1377 1384 1389 1394 1398 1403 1408 1412 1415 1418 1420 1422 1423 1426 1428 1429
1409 1407 1404 1397 1392 1386 1378 1373 1369 1364 1362 1357 1352 1344 1339 1338 1335 1333 1329 1328 1329 1332 1335 1346 1355 1359 1364 1370 1376 1382 1388 1393 1397 1402 1406 1410 1414 1417 1420 1422 1424 1427 1429 1430
Wind_Speed
7 5 16 30 26 8 3 11 2 3 5 8 19 22 16 12 21 23 29 35 41 45 49 44 40 34 34 29 30 25 25 25 28 28 31 30 33 32 27 25 18 15 15 16
5 15 10 2 5 5 2 3 1 4 4 2 6 11 9 6 11 21 27 31 33 42 42 37 33 30 31 33 31 31 25 25 26 30 28 30 30 25 21 15 13 15 16 16
6 7 8 8 5 8 5 5 3 2 7 6 5 14 10 7 16 26 33 33 35 37 35 36 35 34 34 33 31 31 28 24 27 28 30 27 22 19 17 15 16 17 16 14
6 6 4 2 6 6 5 7 5 5 5 6 2 12 13 9 15 13 25 32 34 31 37 41 38 37 34 33 33 33 30 23 24 25 25 21 19 17 13 13 14 15 15 14
7 1 4 5 5 7 7 2 4 2 3 3 2 4 6 5 11 17 19 33 36 37 44 44 42 37 29 30 31 32 22 21 22 21 17 15 13 10 10 15 16 16 14 12
5 1 2 5 4 7 4 6 2 3 3 4 6 6 18 9 16 13 14 26 31 33 32 34 33 28 27 21 26 20 17 20 17 16 14 13 12 13 16 17 15 13 11 11
1 6 4 4 2 1 2 5 2 2 3 11 13 9 21 5 3 3 6 9 13 16 20 23 22 23 25 22 19 17 19 19 18 16 15 15 14 14 14 15 13 12 11 10
5 3 5 4 8 6 6 7 5 6 4 4 8 11 9 14 25 33 26 20 18 17 22 24 24 21 21 19 17 19 20 20 19 17 18 17 15 16 15 12 11 10 9 10
5 3 5 6 2 8 4 4 5 3 2 1 4 7 11 14 19 11 5 13 21 22 28 26 27 21 20 18 20 22 21 20 19 19 19 19 17 16 13 12 11 10 10 9
4 3 4 4 3 4 4 5 3 2 4 4 5 6 8 8 8 14 8 9 27 34 33 29 16 16 17 18 21 21 20 20 19 19 19 17 15 13 12 11 10 9 9 7
5 3 6 2 3 3 3 2 2 4 5 4 2 5 7 14 2 5 6 13 29 32 29 15 5 14 15 21 24 23 22 21 22 21 18 15 14 12 10 9 9 7 7 7
3 1 3 6 6 3 1 3 1 4 7 7 3 7 2 6 5 5 8 25 33 25 22 7 5 14 23 27 27 25 23 23 23 20 16 13 11 10 10 9 6 8 11 9
1 2 2 6 1 3 2 2 4 1 0 7 7 7 3 7 13 12 15 30 32 20 14 4 8 20 28 28 27 25 25 25 23 18 15 14 13 12 9 6 7 11 10 9
5 3 5 5 2 2 2 6 7 4 4 7 20 15 19 21 20 15 25 31 29 24 11 6 15 24 26 27 27 28 27 24 21 19 17 14 13 10 8 6 9 12 12 11
4 5 6 10 13 11 9 12 12 13 13 9 17 15 7 18 16 16 22 28 26 24 16 14 21 25 26 28 30 29 27 25 21 20 16 13 10 9 7 7 10 14 13 12
3 3 2 10 12 11 13 14 15 18 19 21 19 21 10 23 27 18 22 23 25 26 21 23 25 28 28 31 32 29 28 25 21 20 18 15 11 8 7 7 9 16 14 11
3 2 1 5 5 7 8 18 17 20 21 17 21 11 8 15 16 15 24 24 29 33 19 28 30 32 31 33 32 32 29 25 23 20 17 14 10 7 6 8 10 14 14 10
5 5 2 4 2 5 6 1 6 15 21 20 14 8 11 15 16 33 37 32 27 26 22 29 32 33 31 33 32 28 26 26 24 20 16 14 10 8 7 9 9 13 12 10
15 6 2 3 3 9 6 6 6 6 6 8 5 6 6 16 21 32 38 30 18 17 20 26 31 32 31 33 32 28 26 25 23 20 18 14 9 9 9 9 9 11 11 10
13 12 6 3 5 4 3 5 13 9 7 6 6 6 9 14 7 9 13 21 13 16 21 25 31 31 31 33 32 29 27 25 24 20 17 12 9 11 10 8 7 9 9 9
2 2 12 10 5 2 2 12 11 6 3 16 9 11 13 9 11 26 25 17 9 20 21 25 30 30 30 31 32 30 28 26 21 18 15 9 8 10 10 9 7 7 8 8
3 3 2 2 5 2 6 9 3 8 23 21 14 12 16 21 23 22 21 18 9 22 23 26 29 31 31 31 30 30 28 24 21 19 16 11 9 11 10 9 8 7 8 9
3 1 4 2 3 11 18 13 17 21 24 10 16 20 20 20 19 21 12 14 15 21 19 25 27 31 32 32 28 27 27 24 23 21 17 14 11 11 10 8 9 9 9 9
4 2 3 6 3 8 8 14 13 17 21 16 20 27 21 23 18 14 8 10 17 24 20 22 25 31 32 32 29 23 23 24 24 22 18 16 14 11 9 7 7 7 7 8
5 5 5 6 8 21 6 23 19 21 20 18 31 24 23 17 13 9 5 8 18 26 24 20 21 31 31 31 29 28 23 23 24 22 19 18 16 12 8 7 6 4 2 2
3 3 3 6 18 15 19 27 23 22 20 24 32 29 17 12 8 3 6 7 15 24 33 26 26 29 32 30 29 29 26 24 24 24 21 20 18 15 9 7 8 6 4 3
Wind_Direction
247 195 205 205 211 204 60 213 138 149 261 186 225 256 257 252 262 268 271 271 273 276 282 284 285 283 285 292 307 306 286 289 270 247 239 245 250 251 253 254 252 237 221 220
257 232 223 161 192 203 117 112 208 285 255 184 283 276 277 243 256 253 256 260 262 273 280 284 284 276 272 289 300 302 299 281 259 245 248 251 251 252 250 248 234 220 213 214
243 274 183 199 174 205 222 206 177 191 323 281 294 286 267 242 235 251 260 262 268 268 275 278 276 278 286 290 294 296 290 280 254 250 247 243 242 234 231 224 216 211 209 216
230 260 160 26 221 154 189 172 169 195 175 247 110 282 265 264 263 254 260 263 263 266 271 273 275 282 285 289 288 291 285 264 247 239 239 240 238 232 231 220 200 195 195 209
239 278 180 173 188 189 222 146 164 186 249 294 205 296 287 217 259 255 254 257 258 253 260 267 272 277 278 278 279 281 260 244 230 234 229 228 222 221 216 188 187 194 200 198
229 307 198 172 193 191 158 141 118 85 123 260 175 182 275 251 251 252 249 262 261 265 265 268 270 272 281 278 283 258 230 219 214 211 205 206 206 204 197 188 192 191 197 208
346 252 218 155 228 43 91 78 96 124 192 233 161 179 240 306 183 239 246 303 299 279 281 287 280 268 268 273 265 229 212 204 198 193 188 184 194 199 200 187 186 198 208 220
176 258 179 192 184 189 173 166 167 173 201 216 151 222 241 235 254 262 273 293 311 310 308 300 299 279 265 257 231 211 197 192 186 183 182 185 187 180 177 181 192 203 211 219
351 306 332 53 49 151 183 161 195 44 277 111 217 287 293 276 282 269 303 325 314 320 330 312 294 270 252 232 211 195 186 184 180 181 180 170 173 177 178 181 188 204 227 242
315 275 114 317 1 260 166 172 119 356 219 240 260 259 236 318 264 275 353 325 337 335 328 319 281 241 223 206 189 180 183 181 176 175 170 163 164 174 180 185 202 224 232 228
15 60 306 3 200 211 35 287 166 164 177 212 295 264 220 224 172 16 299 327 339 335 336 336 244 206 198 179 176 173 174 174 171 170 166 167 166 174 184 199 206 215 202 178
351 77 269 258 266 334 92 267 268 178 241 248 138 270 357 107 85 33 354 343 344 341 339 340 192 182 172 170 170 170 171 172 169 169 168 172 175 171 174 182 204 183 168 170
282 276 308 319 22 64 115 249 228 260 42 237 235 239 239 324 336 356 347 336 346 330 333 298 191 177 173 169 169 169 170 170 168 170 174 163 161 164 170 176 172 167 166 172
237 232 213 205 311 118 269 292 289 215 229 263 243 267 292 303 309 333 331 320 332 331 285 229 184 181 177 172 170 168 167 171 170 170 160 154 161 170 179 180 167 167 162 159
183 258 234 256 267 279 261 266 264 260 255 250 269 268 283 296 307 306 304 304 316 326 262 226 192 184 181 175 170 171 171 171 172 170 166 159 163 174 186 174 175 174 172 165
199 243 260 288 262 257 264 262 258 254 256 259 261 268 268 274 286 289 293 292 304 315 263 227 200 187 186 182 174 173 171 171 168 164 165 176 181 182 177 177 171 178 180 177
207 247 313 265 298 341 286 241 242 244 238 240 240 242 263 265 275 275 275 285 297 308 254 222 204 191 190 185 177 172 173 170 163 168 178 184 180 175 169 176 177 183 191 194
206 175 193 280 332 249 248 182 302 259 243 228 252 224 235 256 293 289 282 282 284 296 238 214 203 194 191 186 178 170 172 171 176 186 187 181 180 176 170 166 173 187 195 196
213 202 231 240 217 279 320 11 6 341 306 244 228 248 292 307 309 278 271 264 268 262 241 216 204 194 190 186 177 171 170 174 184 191 191 188 193 184 181 175 178 183 197 188
203 211 200 192 236 254 63 337 324 305 261 39 348 322 318 310 258 266 287 227 268 240 221 208 198 194 189 187 181 177 176 180 188 191 191 198 200 193 187 181 179 181 188 197
92 200 228 239 261 260 358 321 315 226 353 319 335 321 294 284 265 292 290 261 249 210 209 204 194 191 188 185 184 182 181 189 183 184 184 185 189 192 193 193 194 188 195 193
314 298 273 249 237 313 323 331 299 308 297 300 328 316 308 291 306 294 281 243 231 200 196 200 190 189 186 185 184 184 187 185 186 180 173 181 191 192 193 200 201 196 198 195
299 170 297 209 272 270 296 229 268 288 307 307 322 315 315 315 316 305 270 224 224 193 191 194 192 188 187 187 185 184 186 187 188 181 178 190 195 191 192 200 201 202 198 203
277 231 263 303 264 317 333 337 268 316 308 305 322 332 329 310 312 304 258 210 191 183 186 185 194 195 190 193 193 187 183 190 187 182 183 197 198 190 193 196 202 209 212 209
237 329 295 273 293 324 294 325 332 334 335 334 339 334 315 315 318 304 239 189 191 192 182 182 199 206 196 196 198 198 191 190 189 184 189 203 202 198 194 197 191 182 195 185
228 266 328 315 315 315 304 318 334 337 341 331 333 322 341 332 305 94 124 148 173 183 183 211 217 215 202 200 200 202 198 194 191 186 197 207 203 200 203 197 184 181 156 114